Theta_e
276 276 276 276 276 277 277 278 279 281 283 285 287 289 291 293 294 296 297 299 312 317 316 314 314 314 314 313 315 314 315 316 310 301 307 307 309 312 314 315 315 318 318
275 275 275 275 276 276 277 277 279 280 282 284 286 288 290 292 294 296 297 301 311 315 313 314 312 312 313 312 313 313 314 316 310 297 299 303 306 308 310 310 311 314 316
275 275 275 275 276 276 276 277 278 279 281 283 286 288 290 291 293 295 300 306 309 313 312 311 310 311 310 310 311 311 311 309 309 302 298 301 302 304 304 305 306 308 312
274 274 275 276 276 276 277 277 277 279 280 282 284 288 289 291 294 295 297 307 310 311 311 312 309 310 310 309 309 309 308 303 304 299 299 300 300 300 302 302 302 305 306
274 275 275 275 276 276 276 277 278 279 281 282 284 286 290 291 294 295 297 303 309 308 309 309 309 310 309 309 308 306 304 301 300 298 298 298 298 298 299 299 299 301 301
274 275 276 278 279 279 278 277 278 279 280 282 286 288 289 294 295 295 297 303 305 307 306 307 308 308 308 309 308 307 306 302 300 299 298 298 298 299 299 298 296 296 295
274 276 278 281 284 284 280 279 279 280 281 283 286 288 291 293 296 297 301 302 304 306 305 305 304 305 306 306 306 306 307 307 310 303 299 299 297 298 298 297 297 298 298
274 276 278 281 286 284 281 280 281 281 283 285 287 288 292 294 295 299 303 303 303 303 305 304 304 303 303 304 303 302 303 303 303 302 302 299 299 298 299 299 298 297 296
274 276 278 281 284 288 285 284 284 285 287 288 288 290 293 296 297 299 303 303 303 302 303 302 303 302 302 303 302 299 298 299 300 302 304 303 300 300 299 298 295 295 291
274 276 277 281 283 284 288 290 289 289 290 290 291 293 295 298 298 300 302 301 299 300 300 301 302 301 301 302 300 298 296 296 298 298 298 298 300 300 300 300 297 295 292
274 275 277 279 282 283 285 286 290 290 291 291 293 295 297 298 298 301 302 299 298 297 297 297 297 299 300 301 301 299 298 298 298 298 296 295 295 295 297 297 297 297 295
273 274 275 277 280 283 284 285 285 287 288 289 290 291 294 296 297 299 299 299 297 297 296 296 297 299 298 299 297 297 298 298 297 296 295 293 293 293 296 296 295 295 297
273 273 274 276 278 282 284 285 285 286 287 287 287 289 289 292 294 297 296 296 296 295 295 296 298 297 297 297 297 297 298 300 299 295 293 292 294 295 296 295 295 296 296
272 272 273 275 276 277 280 283 286 286 286 287 288 288 288 289 290 291 292 293 294 293 294 295 296 296 297 297 298 299 299 300 299 298 296 296 295 293 292 295 294 294 294
272 272 272 273 274 275 277 279 282 285 287 287 288 288 288 288 288 290 290 291 291 291 291 292 292 291 291 291 292 296 299 299 298 296 294 291 290 291 290 291 291 291 289
270 270 271 271 272 273 274 277 279 279 282 286 286 287 287 287 288 289 289 290 291 292 291 291 290 291 290 290 290 290 291 292 291 291 291 290 289 288 288 289 289 289 286
268 269 269 270 270 271 272 273 274 278 279 280 283 284 285 286 286 287 287 288 289 290 289 289 289 289 289 289 289 289 288 290 290 290 289 288 287 287 287 287 287 286 283
271 270 269 269 269 269 270 271 272 274 275 275 278 280 282 283 285 285 286 287 286 286 286 287 287 288 288 288 288 288 288 288 289 288 287 287 287 287 286 285 285 284 283
270 270 270 270 269 269 270 269 270 272 273 274 275 277 278 281 280 281 282 283 283 283 284 285 285 286 286 287 288 288 288 287 287 287 287 287 287 286 285 285 284 283 283
270 270 270 270 270 270 268 268 268 269 270 272 274 273 275 277 277 277 278 279 280 281 282 282 284 285 286 287 287 287 288 288 287 287 287 287 287 287 286 285 284 283 283
270 270 270 270 269 268 268 268 268 267 268 268 270 274 274 273 272 273 275 276 278 279 280 281 282 283 284 285 286 286 286 286 286 286 286 287 287 286 285 285 284 283 283
269 269 270 269 269 269 269 268 268 267 267 268 269 270 273 273 274 275 276 277 278 279 280 280 281 282 282 283 284 284 284 285 285 284 284 284 286 285 284 284 283 282 281
269 270 269 269 269 269 269 269 269 268 268 268 269 269 270 271 272 273 274 275 277 278 279 279 280 280 281 282 283 283 284 285 285 285 285 284 285 284 284 283 282 280 279
269 269 269 269 268 268 268 268 268 268 268 268 268 269 269 269 271 272 273 274 276 276 276 276 277 278 278 279 280 282 283 284 284 284 285 285 284 284 283 282 281 280 279
268 268 267 268 268 268 268 268 268 268 268 268 268 268 269 269 270 271 272 274 274 275 276 276 277 279 280 280 281 281 282 283 283 283 283 284 284 283 283 282 280 279 278
267 267 267 267 267 267 267 267 267 268 268 267 267 268 268 269 269 270 271 273 274 275 276 277 277 278 279 280 280 281 281 282 281 282 282 283 283 282 282 281 279 279 278
Wind_Speed
32 31 32 32 32 32 34 35 36 34 34 34 35 33 33 34 35 34 30 30 31 30 33 35 34 39 33 35 40 36 37 28 7 13 29 23 36 41 40 38 35 36 33
32 34 34 33 32 34 35 35 34 35 34 35 34 35 35 34 32 32 31 29 31 34 34 36 33 36 35 35 38 32 33 40 21 9 18 26 32 39 40 35 28 22 25
33 33 34 34 34 34 35 34 34 35 33 35 35 36 34 33 31 33 26 29 32 35 36 36 37 37 34 33 35 33 28 27 33 25 16 27 25 39 37 33 29 26 24
34 33 33 34 35 35 35 36 37 36 36 35 37 35 36 33 32 34 31 27 33 31 39 39 39 40 41 38 37 34 32 28 27 26 19 22 23 28 36 38 30 29 28
33 32 34 37 37 35 35 36 35 35 35 35 34 37 33 32 32 36 33 31 29 32 37 38 40 42 44 45 38 34 35 27 26 24 18 18 21 28 30 23 26 32 26
34 33 35 34 33 34 35 34 34 33 35 33 34 35 35 30 34 38 35 31 30 35 30 36 38 39 43 46 42 42 41 36 27 20 19 22 25 30 28 32 29 26 8
33 34 35 34 28 25 31 31 31 31 31 33 34 33 34 31 35 37 40 34 34 37 34 33 31 37 42 43 41 43 44 45 44 41 33 33 30 35 34 28 28 28 21
34 36 38 37 26 13 23 26 27 29 30 31 31 34 31 30 33 36 44 35 34 35 38 37 36 37 39 41 41 36 37 36 36 32 35 36 37 44 49 43 39 27 19
35 37 39 37 30 4 17 22 25 26 24 25 27 31 30 25 31 38 40 34 35 31 36 38 41 41 42 45 42 33 31 33 34 34 31 34 39 46 46 38 33 29 10
36 35 36 37 32 24 14 18 20 21 20 24 26 28 27 26 30 37 42 30 26 28 35 37 43 43 48 48 41 39 30 32 32 27 25 29 36 43 49 46 44 30 21
38 37 38 39 34 31 25 23 19 17 17 16 17 20 28 30 30 43 44 32 31 28 28 30 34 41 50 49 42 39 38 41 35 34 31 32 34 38 36 32 37 41 32
38 37 38 38 36 34 32 30 28 22 21 17 16 14 15 25 33 41 44 38 36 34 28 30 36 42 45 42 37 34 43 42 39 36 34 29 30 32 35 28 31 29 30
33 36 36 38 39 39 35 32 27 26 20 16 12 13 16 18 22 35 37 39 37 33 33 36 41 46 43 39 39 44 49 41 36 30 26 24 29 32 34 27 26 23 17
30 31 34 34 36 38 39 36 35 27 19 15 14 13 17 20 20 26 33 37 40 39 42 40 38 36 34 36 38 41 39 35 32 29 26 28 28 28 30 32 28 25 24
29 31 31 32 33 31 32 38 37 43 41 25 27 29 23 21 24 25 27 31 34 40 40 36 31 29 29 27 28 29 28 26 25 26 27 26 27 30 28 29 31 31 23
26 28 29 27 29 30 27 26 37 43 49 50 50 40 41 42 46 48 43 42 41 40 35 30 25 24 24 24 25 24 26 27 26 27 27 29 27 27 28 27 28 26 27
26 26 26 27 25 26 28 29 20 34 38 46 45 45 44 39 44 44 48 45 38 45 31 27 24 23 22 23 24 24 23 26 28 26 27 25 27 28 30 25 24 27 22
29 29 27 25 26 21 22 21 20 21 20 29 36 40 42 41 39 38 35 40 36 37 32 28 23 23 24 25 24 26 26 25 26 26 25 26 26 26 25 23 22 24 26
25 27 27 27 27 25 25 19 17 18 21 23 26 31 33 34 37 40 39 36 30 29 28 28 26 25 26 25 25 27 27 24 24 25 25 25 26 26 23 24 24 24 27
22 22 24 27 29 30 25 22 23 24 23 23 26 25 25 29 34 33 35 32 29 29 29 29 27 28 25 25 25 25 26 23 22 22 23 23 23 25 25 26 27 25 21
18 20 22 24 26 26 27 27 26 24 21 21 23 26 29 32 27 29 30 31 28 29 27 28 27 28 26 23 21 21 21 20 18 20 19 19 21 23 24 24 25 26 28
15 16 18 20 20 23 24 24 24 23 24 25 26 26 29 34 32 30 29 29 28 27 26 25 25 24 23 21 19 18 18 17 18 16 19 18 18 19 22 24 25 26 29
13 13 14 16 16 16 19 21 23 23 23 23 24 25 26 26 25 25 24 21 20 20 19 20 20 19 17 17 15 14 13 14 14 11 15 17 17 18 19 22 24 26 28
12 11 13 13 13 14 15 16 17 18 19 19 19 20 20 19 19 19 18 17 17 16 16 16 14 13 14 13 13 13 13 13 12 9 9 14 16 17 19 21 24 26 29
9 10 9 9 11 12 12 11 12 13 14 15 15 15 15 14 15 14 14 13 14 14 13 13 12 10 9 9 9 10 11 12 11 9 8 9 13 15 17 19 21 23 27
2 4 7 8 7 6 7 9 10 10 10 10 10 11 12 11 11 10 10 10 9 10 11 11 11 9 8 7 7 7 7 8 9 9 9 10 12 14 16 19 22 25 27
Wind_Direction
287 281 275 269 264 258 252 248 245 245 240 237 236 237 239 240 242 249 248 247 240 214 188 186 180 177 174 174 177 182 171 181 159 192 195 191 194 189 187 194 196 199 203
290 282 276 272 264 255 250 246 244 241 238 236 235 234 234 236 239 242 245 236 234 194 186 186 179 175 174 182 176 184 181 182 169 153 178 174 191 192 188 189 192 192 187
296 287 278 270 261 252 246 242 238 236 236 233 231 230 229 231 234 234 238 228 228 198 187 181 181 178 172 180 181 182 185 189 185 164 154 168 174 190 183 183 184 190 191
298 289 281 275 263 252 243 234 233 229 229 229 227 226 226 228 231 232 229 229 211 203 185 190 184 182 177 183 183 181 180 176 171 143 140 159 166 175 180 173 173 183 181
303 297 287 279 266 250 237 230 225 222 223 222 223 225 225 225 225 226 221 221 209 198 190 187 189 190 188 186 179 177 173 163 151 142 144 161 166 165 175 179 163 167 167
313 305 300 291 271 243 225 217 215 212 217 217 219 217 219 222 219 223 216 213 215 195 188 191 196 190 188 188 185 183 183 167 163 153 161 170 178 178 175 171 161 155 145
324 324 324 322 308 219 201 200 202 205 210 212 216 214 213 224 216 220 214 203 197 189 195 189 184 187 186 182 181 185 191 195 198 181 171 177 173 178 171 168 175 168 163
334 339 342 344 349 146 171 183 191 200 204 207 211 210 211 224 217 219 211 196 195 191 194 189 187 180 179 176 175 174 180 189 187 183 189 180 182 179 183 182 175 162 148
344 345 348 356 358 79 172 181 188 193 196 201 211 208 208 222 215 214 205 195 198 190 189 186 187 180 179 180 173 164 166 178 185 192 199 201 196 188 182 176 160 152 125
344 347 355 5 11 16 47 182 176 182 194 201 202 204 207 218 207 201 197 186 180 180 177 182 188 181 177 178 167 162 156 168 171 177 186 190 191 193 192 192 174 162 147
348 356 5 8 16 21 37 55 96 116 120 139 143 187 203 199 198 194 190 177 176 169 167 164 170 176 176 179 176 169 166 168 169 166 161 163 171 176 182 190 186 180 169
355 3 6 11 15 22 36 43 51 64 75 77 97 99 143 182 187 184 179 178 173 164 165 165 164 171 168 169 163 164 164 161 156 148 148 153 159 167 180 186 183 189 189
1 4 6 13 19 24 31 40 41 45 59 64 72 88 86 113 140 163 168 168 163 153 154 158 164 159 152 157 154 161 156 152 148 141 147 153 165 174 179 179 185 192 194
7 10 10 16 15 22 29 33 43 45 48 57 62 72 77 76 100 127 131 131 132 125 129 133 138 146 151 143 149 155 160 164 162 159 159 172 174 173 173 177 169 163 146
12 12 16 16 15 15 22 32 35 38 45 51 56 61 67 72 78 100 113 115 120 120 117 113 112 118 118 121 131 156 170 178 176 176 170 163 161 164 162 165 160 154 149
20 13 12 17 16 16 19 26 36 39 40 48 54 59 57 62 74 81 87 96 102 107 101 102 104 108 113 118 119 123 136 146 149 152 154 154 151 148 148 155 157 155 143
32 24 19 20 26 16 19 23 16 24 40 41 45 51 56 61 64 69 73 74 79 88 84 86 88 95 99 103 110 115 117 136 148 146 146 143 144 145 145 144 147 145 139
33 39 39 36 29 29 30 29 31 34 26 22 34 45 51 52 59 65 71 78 66 68 72 74 76 84 89 95 101 109 117 129 135 137 135 139 140 141 140 140 146 144 140
37 33 41 46 47 45 36 49 54 50 50 47 41 47 45 56 60 61 64 68 70 67 68 70 72 73 80 91 100 108 115 117 127 132 136 142 145 143 136 142 146 147 145
33 41 44 46 46 43 46 46 35 36 44 44 44 37 46 58 52 51 55 60 63 65 64 66 71 81 86 90 97 103 107 113 121 130 137 144 147 153 148 150 152 146 147
36 32 39 44 48 55 56 49 44 43 44 50 52 50 59 66 61 58 60 60 62 67 71 78 81 86 88 94 98 103 106 111 121 130 136 148 156 154 159 159 154 159 161
29 41 39 43 42 43 48 59 63 65 65 60 56 56 64 71 70 68 67 68 70 73 77 81 78 76 79 84 93 102 110 115 121 127 134 148 152 155 158 162 163 165 163
16 22 43 45 42 45 50 45 52 56 56 60 62 64 65 66 68 69 72 76 79 77 80 81 83 84 86 87 91 92 93 103 115 130 139 149 156 158 161 164 167 164 164
355 12 13 19 33 42 44 47 49 51 57 55 59 66 67 69 72 75 77 77 79 83 84 84 86 92 92 94 99 104 107 104 106 118 142 153 158 164 165 170 171 172 170
338 343 3 11 7 15 20 31 40 51 53 55 59 57 56 59 64 71 79 84 86 86 85 86 90 92 92 96 105 120 124 123 120 130 144 162 167 168 171 173 173 172 172
298 323 331 341 354 0 11 12 13 14 26 41 49 53 55 58 62 69 69 70 70 69 69 75 76 79 89 95 100 107 113 129 138 146 154 165 168 171 176 176 176 175 175